sat.trackr.live / text

‹ back to catalog

LMRST-SAT

NORAD 40971 · 2015-058H

PAYLOAD ACTIVE UNKNOWN

§ Identity

Operator
Country
US
Launch date
2015-10-08
Launch site
AFWTR
Launch vehicle
Mass (kg)
RCS (m²)

Purposes: tech_demo

External: N2YO · Heavens-Above · Gunter

§ Orbital elements

Epoch: 2026-09-19T16:36:37.752768Z

Period
96.58 min
Inclination
64.7763°
Eccentricity
0.0140203
Mean motion
14.90998480 rev/d
Perigee alt
497.1 km
Apogee alt
692.6 km
Semi-major
6,973.0 km
B*
9.8513e-5
RAAN
341.6992°
Arg perigee
23.1817°
Mean anomaly
337.5536°
Rev number
12,764

§ Raw data

LMRST-SAT1 40971U 15058H   26262.69210362  .00000992  00000+0  98513-4 0  99962 40971  64.7763 341.6992 0140203  23.1817 337.5536 14.90998480127646

JSON: /api/v1/satellites/40971 · /tle

For live sub-satellite position, see the globe view (requires WebGL).

§ Visibility from observer

Set your observer location to see the next 7 days of passes ≥ 10°. The values pass through the URL so the page stays shareable.

No JS? Fill the form by hand. The geolocation button needs JavaScript.